Home > Weather > Dindigul > Past weeks

Flag for India Past Weather in Dindigul, Tamil Nadu, India — Yesterday and Last 2 Weeks

Now
100 °F

Clear.


Feels Like: 106 °F
Forecast: 79 / 100 °F
Wind: 9 mph from Northwest

Location: Tiruchchirapalli

Current Time: May 24, 2016 at 1:46:12 PM

Latest Report: May 24, 2016 at 1:00 PM


Visibility: 5 mi

Pressure: 29.71 "Hg

Humidity: 35%

Dew Point: 68 °F

Location of DindigulLocation

Past Weather in Dindigul — Graph

°F

Dindigul Temperature Yesterday

Maximum temperature yesterday: 102 °F (at 2:00 PM)
Minimum temperature yesterday: 84 °F (at 5:30 AM)
Average temperature yesterday: 93 °F

High & Low Weather Summary for the Past Weeks

 TemperatureHumidityPressure
High102 °F (May 14, 1:30 PM)100% (May 16, 8:00 AM)29.83 "Hg (May 16, 8:00 AM)
Low73 °F (May 18, 6:00 AM)33% (May 13, 5:30 PM)29.53 "Hg (May 17, 4:00 PM)
Average87 °F70%29.70 "Hg
* Reported May 9 12:30 PM — May 24 12:30 PM, Dindigul, Weather by CustomWeather, © 2016

Note: Actual official high and low records may vary slightly from our data, if they occured in-between our weather recording intervals... More about our weather records

Advertising

Dindigul Weather History for the Previous 24 Hours

Scroll right to see more
 ConditionsComfort  
Time TempWeatherWind HumidityBarometerVisibility
12:30 PM
Tue, May 24
100 °FClear.9 mph35%29.71 "Hg5 mi
12:00 PM99 °FClear.9 mph37%29.74 "Hg5 mi
11:30 AM97 °FClear.17 mph42%29.74 "Hg5 mi
11:00 AM95 °FClear.17 mph47%29.74 "Hg5 mi
10:30 AM95 °FClear.9 mph47%29.77 "Hg4 mi
10:00 AM91 °FClear.9 mph52%29.77 "Hg4 mi
9:30 AM90 °FClear.9 mph55%29.80 "Hg4 mi
9:00 AM90 °FPassing clouds.17 mph59%29.77 "Hg4 mi
8:30 AM88 °FPassing clouds.14 mph62%29.77 "Hg4 mi
8:00 AM88 °FPassing clouds.13 mph59%29.77 "Hg4 mi
7:30 AM86 °FPassing clouds.13 mph62%29.77 "Hg4 mi
7:00 AM86 °FPassing clouds.12 mph62%29.77 "Hg4 mi
6:30 AM86 °FPassing clouds.12 mph62%29.74 "Hg4 mi
6:00 AM84 °FPassing clouds.12 mph66%29.74 "Hg4 mi
5:30 AM84 °FPassing clouds.9 mph66%29.74 "Hg4 mi
4:30 AM84 °FPassing clouds.9 mph70%29.74 "Hg4 mi
4:00 AM84 °FPassing clouds.9 mph70%29.71 "Hg4 mi
3:30 AM84 °FPassing clouds.10 mph70%29.71 "Hg4 mi
3:00 AM86 °FPassing clouds.9 mph66%29.71 "Hg4 mi
2:30 AM86 °FPassing clouds.7 mph66%29.71 "Hg4 mi
2:00 AM86 °FPassing clouds.7 mph75%29.71 "Hg4 mi
1:30 AM86 °FPassing clouds.6 mph75%29.74 "Hg4 mi
1:00 AM88 °FPassing clouds.5 mph70%29.74 "Hg4 mi
12:30 AM88 °FPassing clouds.5 mph70%29.74 "Hg4 mi
12:00 AM88 °FPassing clouds.No wind70%29.77 "Hg4 mi
11:30 PM
Mon, May 23
90 °FPassing clouds.No wind67%29.77 "Hg4 mi
11:00 PM90 °FPassing clouds.No wind63%29.77 "Hg4 mi
10:30 PM91 °FPassing clouds.5 mph56%29.77 "Hg4 mi
10:00 PM93 °FPassing clouds.3 mph49%29.74 "Hg4 mi
9:30 PM95 °FPassing clouds.3 mph47%29.74 "Hg4 mi
9:00 PM95 °FPassing clouds.7 mph47%29.74 "Hg4 mi
8:30 PM97 °FPassing clouds.6 mph44%29.74 "Hg4 mi
8:00 PM100 °FPassing clouds.6 mph40%29.71 "Hg4 mi
7:30 PM100 °FPassing clouds.6 mph42%29.71 "Hg4 mi
7:00 PM100 °FPassing clouds.6 mph37%29.68 "Hg4 mi
6:30 PM100 °FPassing clouds.6 mph37%29.68 "Hg5 mi
6:00 PM100 °FPassing clouds.12 mph37%29.68 "Hg5 mi
5:30 PM100 °FPassing clouds.12 mph37%29.65 "Hg5 mi
5:00 PM102 °FPassing clouds.12 mph35%29.65 "Hg5 mi
4:30 PM102 °FPassing clouds.12 mph35%29.65 "Hg5 mi
4:00 PM102 °FPassing clouds.14 mph37%29.65 "HgN/A
3:30 PM102 °FPassing clouds.14 mph37%29.65 "HgN/A
3:00 PM102 °FPassing clouds.14 mph37%29.65 "HgN/A
2:30 PM102 °FPassing clouds.14 mph37%29.68 "HgN/A
2:00 PM102 °FPassing clouds.14 mph35%29.68 "HgN/A
1:30 PM100 °FPassing clouds.10 mph37%29.71 "HgN/A
1:00 PM100 °FPassing clouds.9 mph40%29.71 "HgN/A
Weather by CustomWeather, © 2016

See weather overviewHow to use our weather pages